Time,TemperatureF,DewpointF,PressureIn,WindDirection,WindDirectionDegrees,WindSpeedMPH,WindSpeedGustMPH,Humidity,HourlyPrecipIn,Conditions,Clouds,dailyrainin,SoftwareType,DateUTC
2013-03-14 00:02:00,50.1,47.5,29.37,WSW,247,1.4,-999.0,93,0.00,,,0.00,Rainwise IP-100,2013-03-14 07:02:00,
2013-03-14 00:07:00,50.2,47.5,29.37,WSW,247,1.9,-999.0,93,0.00,,,0.00,Rainwise IP-100,2013-03-14 07:07:00,
2013-03-14 00:12:00,50.2,47.5,29.37,WSW,247,2.1,-999.0,93,0.00,,,0.00,Rainwise IP-100,2013-03-14 07:12:00,
2013-03-14 00:17:00,50.4,48.0,29.37,WSW,247,1.2,-999.0,93,0.00,,,0.00,Rainwise IP-100,2013-03-14 07:17:00,
2013-03-14 00:22:00,50.7,48.0,29.36,WSW,247,0.0,-999.0,93,0.00,,,0.00,Rainwise IP-100,2013-03-14 07:22:00,
2013-03-14 00:27:00,50.6,48.0,29.36,WSW,247,1.6,-999.0,93,0.00,,,0.00,Rainwise IP-100,2013-03-14 07:27:00,
2013-03-14 00:32:00,50.2,47.5,29.36,WSW,247,1.4,-999.0,93,0.00,,,0.00,Rainwise IP-100,2013-03-14 07:32:00,
2013-03-14 00:37:00,49.9,47.5,29.37,WSW,247,1.6,-999.0,93,0.00,,,0.00,Rainwise IP-100,2013-03-14 07:37:00,
2013-03-14 00:42:00,49.8,47.5,29.36,WSW,247,1.6,-999.0,93,0.00,,,0.00,Rainwise IP-100,2013-03-14 07:42:00,
2013-03-14 00:47:00,49.7,48.0,29.36,WSW,247,0.0,-999.0,94,0.00,,,0.00,Rainwise IP-100,2013-03-14 07:47:00,
2013-03-14 00:52:00,49.6,48.0,29.36,WSW,247,1.4,-999.0,94,0.00,,,0.00,Rainwise IP-100,2013-03-14 07:52:00,
2013-03-14 00:57:00,49.5,48.0,29.36,WSW,247,2.6,-999.0,94,0.00,,,0.00,Rainwise IP-100,2013-03-14 07:57:00,
2013-03-14 01:02:00,49.4,47.5,29.35,WSW,247,2.3,-999.0,94,0.00,,,0.00,Rainwise IP-100,2013-03-14 08:02:00,
2013-03-14 01:07:00,49.5,48.0,29.36,WSW,247,1.4,-999.0,94,0.00,,,0.00,Rainwise IP-100,2013-03-14 08:07:00,
2013-03-14 01:12:00,49.8,48.0,29.36,WSW,247,0.0,-999.0,94,0.00,,,0.00,Rainwise IP-100,2013-03-14 08:12:00,
2013-03-14 01:17:00,49.8,48.0,29.36,WSW,247,0.0,-999.0,95,0.00,,,0.00,Rainwise IP-100,2013-03-14 08:17:00,
2013-03-14 01:22:00,49.5,48.0,29.36,WSW,247,1.4,-999.0,95,0.00,,,0.00,Rainwise IP-100,2013-03-14 08:22:00,
2013-03-14 01:27:00,49.3,47.5,29.36,WSW,247,1.6,-999.0,95,0.00,,,0.00,Rainwise IP-100,2013-03-14 08:27:00,
2013-03-14 01:32:00,49.4,47.5,29.36,WSW,247,0.0,-999.0,95,0.00,,,0.00,Rainwise IP-100,2013-03-14 08:32:00,
2013-03-14 01:37:00,49.9,48.0,29.37,WSW,247,0.0,-999.0,95,0.00,,,0.00,Rainwise IP-100,2013-03-14 08:37:00,
2013-03-14 01:42:00,49.8,48.0,29.36,WSW,247,0.0,-999.0,95,0.00,,,0.00,Rainwise IP-100,2013-03-14 08:42:00,
2013-03-14 01:47:00,49.0,47.5,29.36,WSW,247,0.0,-999.0,94,0.00,,,0.00,Rainwise IP-100,2013-03-14 08:47:00,
2013-03-14 01:52:00,48.5,47.5,29.36,WSW,247,0.0,-999.0,94,0.00,,,0.00,Rainwise IP-100,2013-03-14 08:52:00,
2013-03-14 01:57:00,48.1,47.0,29.37,WSW,247,0.0,-999.0,94,0.00,,,0.00,Rainwise IP-100,2013-03-14 08:57:00,
2013-03-14 02:02:00,47.7,46.0,29.36,WSW,247,2.1,-999.0,95,0.00,,,0.00,Rainwise IP-100,2013-03-14 09:02:00,
2013-03-14 02:07:00,47.3,46.0,29.37,WSW,247,1.4,-999.0,95,0.00,,,0.00,Rainwise IP-100,2013-03-14 09:07:00,
2013-03-14 02:12:00,47.1,45.0,29.36,WSW,247,1.6,-999.0,95,0.00,,,0.00,Rainwise IP-100,2013-03-14 09:12:00,
2013-03-14 02:17:00,47.2,45.0,29.37,WSW,247,0.0,-999.0,95,0.00,,,0.00,Rainwise IP-100,2013-03-14 09:17:00,
2013-03-14 02:22:00,47.4,47.0,29.36,WSW,247,0.0,-999.0,96,0.00,,,0.00,Rainwise IP-100,2013-03-14 09:22:00,
2013-03-14 02:27:00,47.4,47.0,29.37,WSW,247,0.0,-999.0,96,0.00,,,0.00,Rainwise IP-100,2013-03-14 09:27:00,
2013-03-14 02:32:00,47.3,47.0,29.37,WSW,247,0.0,-999.0,97,0.00,,,0.00,Rainwise IP-100,2013-03-14 09:32:00,
2013-03-14 02:37:00,47.1,46.0,29.36,WSW,247,1.2,-999.0,97,0.00,,,0.00,Rainwise IP-100,2013-03-14 09:37:00,
2013-03-14 02:42:00,46.8,46.0,29.37,WSW,247,0.0,-999.0,97,0.00,,,0.00,Rainwise IP-100,2013-03-14 09:42:00,
2013-03-14 02:47:00,46.6,46.0,29.36,WSW,247,1.2,-999.0,97,0.00,,,0.00,Rainwise IP-100,2013-03-14 09:47:00,
2013-03-14 02:52:00,46.5,46.0,29.37,WSW,247,1.6,-999.0,97,0.00,,,0.00,Rainwise IP-100,2013-03-14 09:52:00,
2013-03-14 02:57:00,46.5,46.0,29.36,WSW,247,0.0,-999.0,97,0.00,,,0.00,Rainwise IP-100,2013-03-14 09:57:00,
2013-03-14 03:02:00,46.5,46.0,29.36,WSW,247,1.4,-999.0,97,0.00,,,0.00,Rainwise IP-100,2013-03-14 10:02:00,
2013-03-14 03:07:00,46.7,46.0,29.36,WSW,247,0.0,-999.0,97,0.00,,,0.00,Rainwise IP-100,2013-03-14 10:07:00,
2013-03-14 03:12:00,46.9,46.0,29.36,WSW,247,1.2,-999.0,97,0.00,,,0.00,Rainwise IP-100,2013-03-14 10:12:00,
2013-03-14 03:17:00,47.2,46.0,29.36,WSW,247,0.0,-999.0,97,0.00,,,0.00,Rainwise IP-100,2013-03-14 10:17:00,
2013-03-14 03:22:00,47.3,47.0,29.36,WSW,247,0.0,-999.0,97,0.00,,,0.00,Rainwise IP-100,2013-03-14 10:22:00,
2013-03-14 03:27:00,47.0,46.0,29.36,WSW,247,0.0,-999.0,98,0.00,,,0.00,Rainwise IP-100,2013-03-14 10:27:00,
2013-03-14 03:32:00,46.7,46.0,29.36,WSW,247,0.0,-999.0,98,0.00,,,0.00,Rainwise IP-100,2013-03-14 10:32:00,
2013-03-14 03:37:00,46.4,45.0,29.36,WSW,247,1.2,-999.0,98,0.00,,,0.00,Rainwise IP-100,2013-03-14 10:37:00,
2013-03-14 03:42:00,46.2,45.0,29.35,WSW,247,1.4,-999.0,98,0.00,,,0.00,Rainwise IP-100,2013-03-14 10:42:00,
2013-03-14 03:47:00,46.2,45.0,29.35,WSW,247,0.0,-999.0,98,0.00,,,0.00,Rainwise IP-100,2013-03-14 10:47:00,
2013-03-14 03:52:00,46.5,46.0,29.35,WSW,247,0.0,-999.0,98,0.00,,,0.00,Rainwise IP-100,2013-03-14 10:52:00,
2013-03-14 03:57:00,46.6,46.0,29.35,WSW,247,0.0,-999.0,98,0.00,,,0.00,Rainwise IP-100,2013-03-14 10:57:00,
2013-03-14 04:02:00,46.5,46.0,29.35,WSW,247,1.2,-999.0,98,0.00,,,0.00,Rainwise IP-100,2013-03-14 11:02:00,
2013-03-14 04:07:00,46.3,45.0,29.35,WSW,247,0.0,-999.0,98,0.00,,,0.00,Rainwise IP-100,2013-03-14 11:07:00,
2013-03-14 04:12:00,46.1,45.0,29.35,WSW,247,1.4,-999.0,98,0.00,,,0.00,Rainwise IP-100,2013-03-14 11:12:00,
2013-03-14 04:17:00,46.1,45.0,29.35,WSW,247,0.0,-999.0,98,0.00,,,0.00,Rainwise IP-100,2013-03-14 11:17:00,
2013-03-14 04:22:00,46.2,45.0,29.35,WSW,247,0.0,-999.0,98,0.00,,,0.00,Rainwise IP-100,2013-03-14 11:22:00,
2013-03-14 04:27:00,46.1,45.0,29.35,WSW,247,0.0,-999.0,98,0.00,,,0.00,Rainwise IP-100,2013-03-14 11:27:00,
2013-03-14 04:33:00,45.9,46.0,29.35,WSW,247,0.0,-999.0,99,0.00,,,0.00,Rainwise IP-100,2013-03-14 11:33:00,
2013-03-14 04:38:00,45.8,46.0,29.35,WSW,247,0.0,-999.0,99,0.00,,,0.00,Rainwise IP-100,2013-03-14 11:38:00,
2013-03-14 04:43:00,45.9,46.0,29.35,WSW,247,0.0,-999.0,99,0.00,,,0.00,Rainwise IP-100,2013-03-14 11:43:00,
2013-03-14 04:48:00,46.2,46.0,29.35,WSW,247,0.0,-999.0,99,0.00,,,0.00,Rainwise IP-100,2013-03-14 11:48:00,
2013-03-14 04:53:00,46.0,46.0,29.35,WSW,247,0.0,-999.0,99,0.00,,,0.00,Rainwise IP-100,2013-03-14 11:53:00,
2013-03-14 04:58:00,45.5,46.0,29.35,WSW,247,0.0,-999.0,99,0.00,,,0.00,Rainwise IP-100,2013-03-14 11:58:00,
2013-03-14 05:03:00,45.3,45.0,29.35,WSW,247,0.0,-999.0,99,0.00,,,0.00,Rainwise IP-100,2013-03-14 12:03:00,
2013-03-14 05:08:00,45.2,45.0,29.35,WSW,247,1.4,-999.0,99,0.00,,,0.00,Rainwise IP-100,2013-03-14 12:08:00,
2013-03-14 05:13:00,44.9,45.0,29.35,WSW,247,0.0,-999.0,99,0.00,,,0.00,Rainwise IP-100,2013-03-14 12:13:00,
2013-03-14 05:18:00,44.8,45.0,29.35,WSW,247,2.3,-999.0,99,0.00,,,0.00,Rainwise IP-100,2013-03-14 12:18:00,
2013-03-14 05:23:00,44.7,45.0,29.35,WSW,247,1.4,-999.0,99,0.00,,,0.00,Rainwise IP-100,2013-03-14 12:23:00,
2013-03-14 05:28:00,45.1,45.0,29.35,WSW,247,0.0,-999.0,99,0.00,,,0.00,Rainwise IP-100,2013-03-14 12:28:00,
2013-03-14 05:33:00,45.5,46.0,29.35,WSW,247,0.0,-999.0,99,0.00,,,0.00,Rainwise IP-100,2013-03-14 12:33:00,
2013-03-14 05:38:00,45.4,45.0,29.35,WSW,247,1.2,-999.0,99,0.00,,,0.00,Rainwise IP-100,2013-03-14 12:38:00,
2013-03-14 05:43:00,45.1,45.0,29.35,WSW,247,0.0,-999.0,99,0.00,,,0.00,Rainwise IP-100,2013-03-14 12:43:00,
2013-03-14 05:48:00,44.8,45.0,29.35,WSW,247,1.2,-999.0,99,0.00,,,0.00,Rainwise IP-100,2013-03-14 12:48:00,
2013-03-14 05:53:00,44.5,45.0,29.35,WSW,247,0.0,-999.0,99,0.00,,,0.00,Rainwise IP-100,2013-03-14 12:53:00,
2013-03-14 05:58:00,44.4,44.0,29.35,WSW,247,0.0,-999.0,99,0.00,,,0.00,Rainwise IP-100,2013-03-14 12:58:00,
2013-03-14 06:03:00,44.7,45.0,29.35,WSW,247,0.0,-999.0,99,0.00,,,0.00,Rainwise IP-100,2013-03-14 13:03:00,
2013-03-14 06:08:00,44.7,45.0,29.35,WSW,247,0.0,-999.0,99,0.00,,,0.00,Rainwise IP-100,2013-03-14 13:08:00,
2013-03-14 06:13:00,44.3,44.0,29.35,WSW,247,0.0,-999.0,99,0.00,,,0.00,Rainwise IP-100,2013-03-14 13:13:00,
2013-03-14 06:18:00,44.0,44.0,29.35,WSW,247,0.0,-999.0,99,0.00,,,0.00,Rainwise IP-100,2013-03-14 13:18:00,
2013-03-14 06:23:00,43.9,44.0,29.36,WSW,247,1.4,-999.0,99,0.00,,,0.00,Rainwise IP-100,2013-03-14 13:23:00,
2013-03-14 06:28:00,44.0,44.0,29.36,WSW,247,0.0,-999.0,99,0.00,,,0.00,Rainwise IP-100,2013-03-14 13:28:00,
2013-03-14 06:33:00,44.1,44.0,29.36,WSW,247,0.0,-999.0,99,0.00,,,0.00,Rainwise IP-100,2013-03-14 13:33:00,
2013-03-14 06:38:00,43.9,44.0,29.36,WSW,247,0.0,-999.0,99,0.00,,,0.00,Rainwise IP-100,2013-03-14 13:38:00,
2013-03-14 06:43:00,43.6,44.0,29.35,WSW,247,1.2,-999.0,99,0.00,,,0.00,Rainwise IP-100,2013-03-14 13:43:00,
2013-03-14 06:48:00,43.4,43.0,29.36,WSW,247,1.4,-999.0,99,0.00,,,0.00,Rainwise IP-100,2013-03-14 13:48:00,
2013-03-14 06:53:00,43.9,44.0,29.36,WSW,247,0.0,-999.0,99,0.00,,,0.00,Rainwise IP-100,2013-03-14 13:53:00,
2013-03-14 06:58:00,44.3,44.0,29.36,WSW,247,0.0,-999.0,99,0.00,,,0.00,Rainwise IP-100,2013-03-14 13:58:00,
2013-03-14 07:03:00,44.0,44.0,29.36,WSW,247,2.1,-999.0,100,0.00,,,0.00,Rainwise IP-100,2013-03-14 14:03:00,
2013-03-14 07:08:00,43.7,44.0,29.36,WSW,247,0.0,-999.0,100,0.00,,,0.00,Rainwise IP-100,2013-03-14 14:08:00,
2013-03-14 07:13:00,43.7,44.0,29.36,WSW,247,0.0,-999.0,100,0.00,,,0.00,Rainwise IP-100,2013-03-14 14:13:00,
2013-03-14 07:18:00,44.0,44.0,29.37,WSW,247,0.0,-999.0,100,0.00,,,0.00,Rainwise IP-100,2013-03-14 14:18:00,
2013-03-14 07:23:00,44.1,44.0,29.37,WSW,247,0.0,-999.0,100,0.00,,,0.00,Rainwise IP-100,2013-03-14 14:23:00,
2013-03-14 07:28:00,43.7,44.0,29.36,WSW,247,2.3,-999.0,100,0.00,,,0.00,Rainwise IP-100,2013-03-14 14:28:00,
2013-03-14 07:33:00,43.4,43.0,29.36,WSW,247,0.0,-999.0,100,0.00,,,0.00,Rainwise IP-100,2013-03-14 14:33:00,
2013-03-14 07:38:00,43.5,44.0,29.37,WSW,247,2.1,-999.0,100,0.00,,,0.00,Rainwise IP-100,2013-03-14 14:38:00,
2013-03-14 07:43:00,44.0,44.0,29.37,WSW,247,0.0,-999.0,100,0.00,,,0.00,Rainwise IP-100,2013-03-14 14:43:00,
2013-03-14 07:48:00,44.7,45.0,29.37,WSW,247,0.0,-999.0,100,0.00,,,0.00,Rainwise IP-100,2013-03-14 14:48:00,
2013-03-14 07:53:00,45.4,45.0,29.37,WSW,247,0.0,-999.0,100,0.00,,,0.00,Rainwise IP-100,2013-03-14 14:53:00,
2013-03-14 07:58:00,45.6,46.0,29.37,WSW,247,0.0,-999.0,100,0.00,,,0.00,Rainwise IP-100,2013-03-14 14:58:00,
2013-03-14 08:03:00,45.5,46.0,29.38,WSW,247,0.0,-999.0,100,0.00,,,0.00,Rainwise IP-100,2013-03-14 15:03:00,
2013-03-14 08:08:00,46.1,46.0,29.38,WSW,247,0.0,-999.0,100,0.00,,,0.00,Rainwise IP-100,2013-03-14 15:08:00,
2013-03-14 08:13:00,46.6,47.0,29.38,WSW,247,0.0,-999.0,100,0.00,,,0.00,Rainwise IP-100,2013-03-14 15:13:00,
2013-03-14 08:18:00,46.5,47.0,29.38,WSW,247,0.0,-999.0,100,0.00,,,0.00,Rainwise IP-100,2013-03-14 15:18:00,
2013-03-14 08:23:00,46.9,47.0,29.38,WSW,247,0.0,-999.0,100,0.00,,,0.00,Rainwise IP-100,2013-03-14 15:23:00,
2013-03-14 08:28:00,47.1,47.0,29.38,SSE,157,1.4,-999.0,100,0.00,,,0.00,Rainwise IP-100,2013-03-14 15:28:00,
2013-03-14 08:33:00,47.1,47.0,29.38,SSE,157,0.0,-999.0,100,0.00,,,0.00,Rainwise IP-100,2013-03-14 15:33:00,
2013-03-14 08:38:00,47.2,47.0,29.38,SSE,157,0.0,-999.0,100,0.00,,,0.00,Rainwise IP-100,2013-03-14 15:38:00,
2013-03-14 08:43:00,47.5,47.5,29.39,ESE,112,1.4,-999.0,100,0.00,,,0.00,Rainwise IP-100,2013-03-14 15:43:00,
2013-03-14 08:48:00,47.8,48.0,29.39,ESE,112,1.6,-999.0,100,0.00,,,0.00,Rainwise IP-100,2013-03-14 15:48:00,
2013-03-14 08:53:00,48.2,48.0,29.39,ESE,112,0.0,-999.0,100,0.00,,,0.00,Rainwise IP-100,2013-03-14 15:53:00,
2013-03-14 08:58:00,48.5,49.0,29.39,ESE,112,0.0,-999.0,100,0.00,,,0.00,Rainwise IP-100,2013-03-14 15:58:00,
2013-03-14 09:03:00,49.0,49.0,29.39,ESE,112,0.0,-999.0,99,0.00,,,0.00,Rainwise IP-100,2013-03-14 16:03:00,
2013-03-14 09:08:00,49.6,50.0,29.39,ESE,112,0.0,-999.0,99,0.00,,,0.00,Rainwise IP-100,2013-03-14 16:08:00,
2013-03-14 09:13:00,49.9,50.0,29.40,ESE,112,0.0,-999.0,99,0.00,,,0.00,Rainwise IP-100,2013-03-14 16:13:00,
2013-03-14 09:18:00,50.1,50.0,29.40,ESE,112,0.0,-999.0,99,0.00,,,0.00,Rainwise IP-100,2013-03-14 16:18:00,
2013-03-14 09:23:00,50.5,50.5,29.40,ESE,112,0.0,-999.0,99,0.00,,,0.00,Rainwise IP-100,2013-03-14 16:23:00,
2013-03-14 09:28:00,51.1,51.0,29.40,ESE,112,2.1,-999.0,99,0.00,,,0.00,Rainwise IP-100,2013-03-14 16:28:00,
2013-03-14 09:33:00,51.7,51.0,29.41,ESE,112,2.3,-999.0,97,0.00,,,0.00,Rainwise IP-100,2013-03-14 16:33:00,
2013-03-14 09:38:00,52.1,50.5,29.41,SE,135,0.0,-999.0,96,0.00,,,0.00,Rainwise IP-100,2013-03-14 16:38:00,
2013-03-14 09:43:00,52.6,51.0,29.40,SE,135,0.0,-999.0,96,0.00,,,0.00,Rainwise IP-100,2013-03-14 16:43:00,
2013-03-14 09:48:00,53.2,51.0,29.41,SE,135,0.0,-999.0,96,0.00,,,0.00,Rainwise IP-100,2013-03-14 16:48:00,
2013-03-14 09:53:00,53.9,53.0,29.41,SE,135,0.0,-999.0,96,0.00,,,0.00,Rainwise IP-100,2013-03-14 16:53:00,
2013-03-14 09:58:00,54.6,53.5,29.41,SE,135,1.4,-999.0,95,0.00,,,0.00,Rainwise IP-100,2013-03-14 16:58:00,
2013-03-14 10:03:00,55.0,53.5,29.41,SE,135,1.4,-999.0,93,0.00,,,0.00,Rainwise IP-100,2013-03-14 17:03:00,
2013-03-14 10:08:00,55.2,53.0,29.41,SE,135,2.1,-999.0,92,0.00,,,0.00,Rainwise IP-100,2013-03-14 17:08:00,
2013-03-14 10:13:00,55.6,53.5,29.41,SE,135,0.0,-999.0,91,0.00,,,0.00,Rainwise IP-100,2013-03-14 17:13:00,
2013-03-14 10:18:00,55.9,53.5,29.41,ESE,112,2.3,-999.0,90,0.00,,,0.00,Rainwise IP-100,2013-03-14 17:18:00,
2013-03-14 10:23:00,56.0,53.5,29.41,ESE,112,1.9,-999.0,90,0.00,,,0.00,Rainwise IP-100,2013-03-14 17:23:00,
2013-03-14 10:28:00,56.3,53.5,29.41,SE,135,2.1,-999.0,89,0.00,,,0.00,Rainwise IP-100,2013-03-14 17:28:00,
2013-03-14 10:33:00,56.7,53.0,29.41,SSE,157,1.6,-999.0,88,0.00,,,0.00,Rainwise IP-100,2013-03-14 17:33:00,
2013-03-14 10:38:00,57.1,53.5,29.41,SSE,157,0.0,-999.0,87,0.00,,,0.00,Rainwise IP-100,2013-03-14 17:38:00,
2013-03-14 10:43:00,57.7,53.5,29.40,ESE,112,1.4,-999.0,85,0.00,,,0.00,Rainwise IP-100,2013-03-14 17:43:00,
2013-03-14 10:48:00,58.3,53.5,29.41,SSE,157,0.0,-999.0,84,0.00,,,0.00,Rainwise IP-100,2013-03-14 17:48:00,
2013-03-14 10:53:00,59.1,54.0,29.41,ESE,112,0.0,-999.0,83,0.00,,,0.00,Rainwise IP-100,2013-03-14 17:53:00,
2013-03-14 10:58:00,60.0,54.0,29.41,ESE,112,0.0,-999.0,80,0.00,,,0.00,Rainwise IP-100,2013-03-14 17:58:00,
2013-03-14 11:03:00,60.3,53.5,29.41,ENE,67,0.0,-999.0,77,0.00,,,0.00,Rainwise IP-100,2013-03-14 18:03:00,
2013-03-14 11:08:00,61.0,53.5,29.41,SE,135,1.4,-999.0,76,0.00,,,0.00,Rainwise IP-100,2013-03-14 18:08:00,
2013-03-14 11:13:00,61.9,54.0,29.41,ESE,112,1.2,-999.0,75,0.00,,,0.00,Rainwise IP-100,2013-03-14 18:13:00,
2013-03-14 11:18:00,61.8,53.5,29.41,ESE,112,0.0,-999.0,74,0.00,,,0.00,Rainwise IP-100,2013-03-14 18:18:00,
2013-03-14 11:23:00,61.8,53.5,29.41,SSE,157,0.0,-999.0,73,0.00,,,0.00,Rainwise IP-100,2013-03-14 18:23:00,
2013-03-14 11:28:00,62.3,54.0,29.41,SE,135,2.1,-999.0,73,0.00,,,0.00,Rainwise IP-100,2013-03-14 18:28:00,
2013-03-14 11:33:00,62.7,54.0,29.41,ESE,112,1.4,-999.0,73,0.00,,,0.00,Rainwise IP-100,2013-03-14 18:33:00,
2013-03-14 11:38:00,63.3,54.0,29.41,ESE,112,1.6,-999.0,71,0.00,,,0.00,Rainwise IP-100,2013-03-14 18:38:00,
2013-03-14 11:43:00,63.9,53.5,29.41,SSE,157,2.3,-999.0,69,0.00,,,0.00,Rainwise IP-100,2013-03-14 18:43:00,
2013-03-14 11:48:00,64.0,53.5,29.41,ESE,112,1.6,-999.0,68,0.00,,,0.00,Rainwise IP-100,2013-03-14 18:48:00,
2013-03-14 11:53:00,64.2,53.5,29.40,SSE,157,0.0,-999.0,68,0.00,,,0.00,Rainwise IP-100,2013-03-14 18:53:00,
2013-03-14 11:58:00,64.4,53.5,29.41,ESE,112,1.6,-999.0,67,0.00,,,0.00,Rainwise IP-100,2013-03-14 18:58:00,
2013-03-14 12:03:00,64.9,54.0,29.40,SE,135,1.2,-999.0,67,0.00,,,0.00,Rainwise IP-100,2013-03-14 19:03:00,
2013-03-14 12:08:00,65.6,54.0,29.41,SE,135,1.2,-999.0,67,0.00,,,0.00,Rainwise IP-100,2013-03-14 19:08:00,
2013-03-14 12:13:00,66.4,55.0,29.40,SSE,157,2.1,-999.0,67,0.00,,,0.00,Rainwise IP-100,2013-03-14 19:13:00,
2013-03-14 12:18:00,67.0,55.0,29.40,SSE,157,3.5,-999.0,65,0.00,,,0.00,Rainwise IP-100,2013-03-14 19:18:00,
2013-03-14 12:23:00,67.2,54.5,29.40,SSE,157,2.3,-999.0,64,0.00,,,0.00,Rainwise IP-100,2013-03-14 19:23:00,
2013-03-14 12:28:00,67.4,54.5,29.39,SSW,202,3.5,-999.0,63,0.00,,,0.00,Rainwise IP-100,2013-03-14 19:28:00,
2013-03-14 12:33:00,67.5,54.0,29.40,SE,135,0.0,-999.0,62,0.00,,,0.00,Rainwise IP-100,2013-03-14 19:33:00,
2013-03-14 12:38:00,67.7,54.0,29.39,SE,135,1.2,-999.0,62,0.00,,,0.00,Rainwise IP-100,2013-03-14 19:38:00,
2013-03-14 12:43:00,68.3,54.5,29.39,SSW,202,3.0,-999.0,62,0.00,,,0.00,Rainwise IP-100,2013-03-14 19:43:00,
2013-03-14 12:48:00,68.9,54.5,29.39,ESE,112,2.6,-999.0,61,0.00,,,0.00,Rainwise IP-100,2013-03-14 19:48:00,
2013-03-14 12:53:00,69.0,54.5,29.39,SSE,157,3.0,-999.0,60,0.00,,,0.00,Rainwise IP-100,2013-03-14 19:53:00,
2013-03-14 12:58:00,69.2,54.5,29.39,SSE,157,0.0,-999.0,60,0.00,,,0.00,Rainwise IP-100,2013-03-14 19:58:00,
2013-03-14 13:03:00,69.6,54.5,29.38,SSE,157,2.3,-999.0,59,0.00,,,0.00,Rainwise IP-100,2013-03-14 20:03:00,
2013-03-14 13:08:00,69.7,54.0,29.39,SSE,157,1.6,-999.0,58,0.00,,,0.00,Rainwise IP-100,2013-03-14 20:08:00,
2013-03-14 13:13:00,69.6,54.0,29.39,SSE,157,3.5,-999.0,57,0.00,,,0.00,Rainwise IP-100,2013-03-14 20:13:00,
2013-03-14 13:18:00,69.7,54.0,29.39,SSE,157,3.7,-999.0,57,0.00,,,0.00,Rainwise IP-100,2013-03-14 20:18:00,
2013-03-14 13:23:00,70.0,54.0,29.39,SE,135,2.1,-999.0,57,0.00,,,0.00,Rainwise IP-100,2013-03-14 20:23:00,
2013-03-14 13:28:00,70.5,55.0,29.39,ESE,112,3.0,-999.0,58,0.00,,,0.00,Rainwise IP-100,2013-03-14 20:28:00,
2013-03-14 13:33:00,70.9,55.0,29.39,ESE,112,3.0,-999.0,58,0.00,,,0.00,Rainwise IP-100,2013-03-14 20:33:00,
2013-03-14 13:38:00,71.0,54.5,29.38,SSW,202,2.8,-999.0,56,0.00,,,0.00,Rainwise IP-100,2013-03-14 20:38:00,
2013-03-14 13:43:00,71.4,52.0,29.37,SSE,157,1.4,-999.0,51,0.00,,,0.00,Rainwise IP-100,2013-03-14 20:43:00,
2013-03-14 13:48:00,71.9,50.5,29.37,SSE,157,0.0,-999.0,47,0.00,,,0.00,Rainwise IP-100,2013-03-14 20:48:00,
2013-03-14 13:53:00,71.9,50.0,29.37,ESE,112,2.6,-999.0,45,0.00,,,0.00,Rainwise IP-100,2013-03-14 20:53:00,
2013-03-14 13:58:00,71.6,50.5,29.37,ESE,112,2.6,-999.0,47,0.00,,,0.00,Rainwise IP-100,2013-03-14 20:58:00,
2013-03-14 14:03:00,71.5,51.0,29.36,ESE,112,2.1,-999.0,49,0.00,,,0.00,Rainwise IP-100,2013-03-14 21:03:00,
2013-03-14 14:08:00,71.7,50.5,29.37,SSE,157,3.7,-999.0,48,0.00,,,0.00,Rainwise IP-100,2013-03-14 21:08:00,
2013-03-14 14:13:00,72.0,50.0,29.37,SSE,157,2.8,-999.0,45,0.00,,,0.00,Rainwise IP-100,2013-03-14 21:13:00,
2013-03-14 14:18:00,72.5,50.0,29.37,SE,135,3.3,-999.0,44,0.00,,,0.00,Rainwise IP-100,2013-03-14 21:18:00,
2013-03-14 14:23:00,73.1,50.0,29.36,SSE,157,1.9,-999.0,44,0.00,,,0.00,Rainwise IP-100,2013-03-14 21:23:00,
2013-03-14 14:28:00,73.5,50.5,29.37,SSE,157,0.0,-999.0,44,0.00,,,0.00,Rainwise IP-100,2013-03-14 21:28:00,
2013-03-14 14:33:00,73.7,50.5,29.36,SSE,157,0.0,-999.0,44,0.00,,,0.00,Rainwise IP-100,2013-03-14 21:33:00,
2013-03-14 14:38:00,73.7,50.5,29.36,SSE,157,3.5,-999.0,44,0.00,,,0.00,Rainwise IP-100,2013-03-14 21:38:00,
2013-03-14 14:43:00,73.5,50.0,29.35,SSE,157,4.0,-999.0,43,0.00,,,0.00,Rainwise IP-100,2013-03-14 21:43:00,
2013-03-14 14:48:00,73.7,50.0,29.36,SSE,157,5.8,-999.0,43,0.00,,,0.00,Rainwise IP-100,2013-03-14 21:48:00,
2013-03-14 14:53:00,73.6,51.0,29.35,SSW,202,4.0,-999.0,45,0.00,,,0.00,Rainwise IP-100,2013-03-14 21:53:00,
2013-03-14 14:58:00,73.8,51.0,29.36,SSW,202,2.1,-999.0,45,0.00,,,0.00,Rainwise IP-100,2013-03-14 21:58:00,
2013-03-14 15:03:00,73.9,50.5,29.35,SSE,157,1.6,-999.0,44,0.00,,,0.00,Rainwise IP-100,2013-03-14 22:03:00,
2013-03-14 15:08:00,73.5,51.0,29.35,SSE,157,3.3,-999.0,45,0.00,,,0.00,Rainwise IP-100,2013-03-14 22:08:00,
2013-03-14 15:13:00,73.3,51.0,29.35,SSW,202,2.1,-999.0,46,0.00,,,0.00,Rainwise IP-100,2013-03-14 22:13:00,
2013-03-14 15:18:00,73.3,51.0,29.35,SE,135,4.0,-999.0,46,0.00,,,0.00,Rainwise IP-100,2013-03-14 22:18:00,
2013-03-14 15:23:00,73.0,52.0,29.35,SSE,157,4.7,-999.0,48,0.00,,,0.00,Rainwise IP-100,2013-03-14 22:23:00,
2013-03-14 15:28:00,72.7,53.0,29.35,WSW,247,1.6,-999.0,49,0.00,,,0.00,Rainwise IP-100,2013-03-14 22:28:00,
2013-03-14 15:33:00,73.2,53.5,29.35,SSW,202,6.8,-999.0,49,0.00,,,0.00,Rainwise IP-100,2013-03-14 22:33:00,
2013-03-14 15:38:00,73.7,53.0,29.35,SSE,157,5.4,-999.0,48,0.00,,,0.00,Rainwise IP-100,2013-03-14 22:38:00,
2013-03-14 15:43:00,73.5,52.0,29.34,South,180,3.3,-999.0,47,0.00,,,0.00,Rainwise IP-100,2013-03-14 22:43:00,
2013-03-14 15:48:00,73.5,53.0,29.35,SSW,202,2.6,-999.0,48,0.00,,,0.00,Rainwise IP-100,2013-03-14 22:48:00,
2013-03-14 15:53:00,73.5,53.0,29.35,SSE,157,7.0,-999.0,48,0.00,,,0.00,Rainwise IP-100,2013-03-14 22:53:00,
2013-03-14 15:58:00,73.2,53.5,29.35,SW,225,5.1,-999.0,49,0.00,,,0.00,Rainwise IP-100,2013-03-14 22:58:00,
2013-03-14 16:03:00,73.2,54.0,29.36,SSW,202,3.3,-999.0,50,0.00,,,0.00,Rainwise IP-100,2013-03-14 23:03:00,
2013-03-14 16:08:00,73.3,53.0,29.35,WNW,292,3.3,-999.0,48,0.00,,,0.00,Rainwise IP-100,2013-03-14 23:08:00,
2013-03-14 16:13:00,73.4,51.0,29.34,WSW,247,3.0,-999.0,46,0.00,,,0.00,Rainwise IP-100,2013-03-14 23:13:00,
2013-03-14 16:18:00,73.5,51.0,29.35,WSW,247,2.6,-999.0,45,0.00,,,0.00,Rainwise IP-100,2013-03-14 23:18:00,
2013-03-14 16:23:00,73.5,50.5,29.35,SSW,202,1.9,-999.0,44,0.00,,,0.00,Rainwise IP-100,2013-03-14 23:23:00,
2013-03-14 16:28:00,73.3,50.5,29.35,East,90,1.4,-999.0,44,0.00,,,0.00,Rainwise IP-100,2013-03-14 23:28:00,
2013-03-14 16:33:00,73.3,50.5,29.35,WSW,247,3.7,-999.0,44,0.00,,,0.00,Rainwise IP-100,2013-03-14 23:33:00,
2013-03-14 16:38:00,73.7,50.5,29.35,WSW,247,0.0,-999.0,44,0.00,,,0.00,Rainwise IP-100,2013-03-14 23:38:00,
2013-03-14 16:43:00,73.9,50.5,29.35,SSW,202,4.7,-999.0,43,0.00,,,0.00,Rainwise IP-100,2013-03-14 23:43:00,
2013-03-14 16:48:00,73.8,48.0,29.35,SSW,202,3.5,-999.0,41,0.00,,,0.00,Rainwise IP-100,2013-03-14 23:48:00,
2013-03-14 16:53:00,73.2,47.0,29.35,SSW,202,7.2,-999.0,39,0.00,,,0.00,Rainwise IP-100,2013-03-14 23:53:00,
2013-03-14 16:58:00,72.5,47.0,29.35,WSW,247,1.4,-999.0,39,0.00,,,0.00,Rainwise IP-100,2013-03-14 23:58:00,
2013-03-14 17:04:00,72.0,47.0,29.35,WSW,247,0.0,-999.0,40,0.00,,,0.00,Rainwise IP-100,2013-03-15 00:04:00,
2013-03-14 17:09:00,71.6,47.0,29.35,WSW,247,2.8,-999.0,41,0.00,,,0.00,Rainwise IP-100,2013-03-15 00:09:00,
2013-03-14 17:14:00,71.2,47.0,29.35,NNW,337,0.0,-999.0,41,0.00,,,0.00,Rainwise IP-100,2013-03-15 00:14:00,
2013-03-14 17:19:00,70.9,46.0,29.35,WSW,247,2.6,-999.0,41,0.00,,,0.00,Rainwise IP-100,2013-03-15 00:19:00,
2013-03-14 17:24:00,70.7,46.0,29.35,WSW,247,1.9,-999.0,41,0.00,,,0.00,Rainwise IP-100,2013-03-15 00:24:00,
2013-03-14 17:29:00,70.2,45.0,29.35,NNE,22,2.3,-999.0,40,0.00,,,0.00,Rainwise IP-100,2013-03-15 00:29:00,
2013-03-14 17:34:00,69.5,45.0,29.35,East,90,2.3,-999.0,41,0.00,,,0.00,Rainwise IP-100,2013-03-15 00:34:00,
2013-03-14 17:39:00,68.8,45.0,29.35,ESE,112,1.6,-999.0,42,0.00,,,0.00,Rainwise IP-100,2013-03-15 00:39:00,
2013-03-14 17:44:00,68.5,44.0,29.35,ESE,112,0.0,-999.0,42,0.00,,,0.00,Rainwise IP-100,2013-03-15 00:44:00,
2013-03-14 17:49:00,68.6,44.0,29.35,ESE,112,0.0,-999.0,42,0.00,,,0.00,Rainwise IP-100,2013-03-15 00:49:00,
2013-03-14 17:54:00,68.6,45.0,29.35,ESE,112,0.0,-999.0,43,0.00,,,0.00,Rainwise IP-100,2013-03-15 00:54:00,
2013-03-14 17:59:00,68.3,46.0,29.35,ENE,67,0.0,-999.0,44,0.00,,,0.00,Rainwise IP-100,2013-03-15 00:59:00,
2013-03-14 18:04:00,68.1,46.0,29.34,ENE,67,0.0,-999.0,45,0.00,,,0.00,Rainwise IP-100,2013-03-15 01:04:00,
2013-03-14 18:09:00,67.8,45.0,29.35,ENE,67,0.0,-999.0,44,0.00,,,0.00,Rainwise IP-100,2013-03-15 01:09:00,
2013-03-14 18:14:00,67.6,44.0,29.34,NNE,22,0.0,-999.0,42,0.00,,,0.00,Rainwise IP-100,2013-03-15 01:14:00,
2013-03-14 18:19:00,67.3,44.0,29.34,WSW,247,2.1,-999.0,42,0.00,,,0.00,Rainwise IP-100,2013-03-15 01:19:00,
2013-03-14 18:24:00,67.2,44.0,29.34,WNW,292,0.0,-999.0,43,0.00,,,0.00,Rainwise IP-100,2013-03-15 01:24:00,
2013-03-14 18:29:00,66.9,44.0,29.34,WNW,292,0.0,-999.0,44,0.00,,,0.00,Rainwise IP-100,2013-03-15 01:29:00,
2013-03-14 18:34:00,66.5,45.0,29.34,West,270,1.9,-999.0,46,0.00,,,0.00,Rainwise IP-100,2013-03-15 01:34:00,
2013-03-14 18:39:00,65.9,46.0,29.35,West,270,2.1,-999.0,48,0.00,,,0.00,Rainwise IP-100,2013-03-15 01:39:00,
2013-03-14 18:44:00,65.4,46.0,29.35,SW,225,0.0,-999.0,49,0.00,,,0.00,Rainwise IP-100,2013-03-15 01:44:00,
2013-03-14 18:49:00,64.8,46.0,29.35,SW,225,0.0,-999.0,50,0.00,,,0.00,Rainwise IP-100,2013-03-15 01:49:00,
2013-03-14 18:54:00,64.4,46.0,29.35,SW,225,0.0,-999.0,50,0.00,,,0.00,Rainwise IP-100,2013-03-15 01:54:00,
2013-03-14 18:59:00,64.1,46.0,29.35,SW,225,0.0,-999.0,52,0.00,,,0.00,Rainwise IP-100,2013-03-15 01:59:00,
2013-03-14 19:04:00,63.6,47.0,29.35,SW,225,2.8,-999.0,55,0.00,,,0.00,Rainwise IP-100,2013-03-15 02:04:00,
2013-03-14 19:09:00,63.2,47.0,29.35,WNW,292,0.0,-999.0,55,0.00,,,0.00,Rainwise IP-100,2013-03-15 02:09:00,
2013-03-14 19:14:00,62.8,47.0,29.35,WNW,292,1.6,-999.0,56,0.00,,,0.00,Rainwise IP-100,2013-03-15 02:14:00,
2013-03-14 19:19:00,62.2,47.0,29.36,WNW,292,0.0,-999.0,58,0.00,,,0.00,Rainwise IP-100,2013-03-15 02:19:00,
2013-03-14 19:24:00,61.5,47.0,29.35,SSE,157,0.0,-999.0,58,0.00,,,0.00,Rainwise IP-100,2013-03-15 02:24:00,
2013-03-14 19:29:00,60.9,46.0,29.35,SW,225,0.0,-999.0,58,0.00,,,0.00,Rainwise IP-100,2013-03-15 02:29:00,
2013-03-14 19:34:00,60.6,46.0,29.35,SSW,202,2.1,-999.0,58,0.00,,,0.00,Rainwise IP-100,2013-03-15 02:34:00,
2013-03-14 19:39:00,60.4,46.0,29.35,ESE,112,0.0,-999.0,58,0.00,,,0.00,Rainwise IP-100,2013-03-15 02:39:00,
2013-03-14 19:44:00,59.9,46.0,29.35,ESE,112,0.0,-999.0,60,0.00,,,0.00,Rainwise IP-100,2013-03-15 02:44:00,
2013-03-14 19:49:00,59.5,47.0,29.35,ENE,67,0.0,-999.0,62,0.00,,,0.00,Rainwise IP-100,2013-03-15 02:49:00,
2013-03-14 19:54:00,59.1,47.0,29.35,WSW,247,4.2,-999.0,63,0.00,,,0.00,Rainwise IP-100,2013-03-15 02:54:00,
2013-03-14 19:59:00,58.1,47.0,29.35,WSW,247,0.0,-999.0,65,0.00,,,0.00,Rainwise IP-100,2013-03-15 02:59:00,
2013-03-14 20:04:00,57.3,47.0,29.35,WSW,247,3.3,-999.0,66,0.00,,,0.00,Rainwise IP-100,2013-03-15 03:04:00,
2013-03-14 20:09:00,57.0,46.0,29.35,WSW,247,1.4,-999.0,66,0.00,,,0.00,Rainwise IP-100,2013-03-15 03:09:00,
2013-03-14 20:14:00,56.9,46.0,29.35,WSW,247,0.0,-999.0,66,0.00,,,0.00,Rainwise IP-100,2013-03-15 03:14:00,
2013-03-14 20:19:00,56.6,45.0,29.35,WSW,247,0.0,-999.0,66,0.00,,,0.00,Rainwise IP-100,2013-03-15 03:19:00,
2013-03-14 20:24:00,56.1,45.0,29.35,WSW,247,2.6,-999.0,67,0.00,,,0.00,Rainwise IP-100,2013-03-15 03:24:00,
2013-03-14 20:29:00,55.3,45.0,29.35,WSW,247,0.0,-999.0,68,0.00,,,0.00,Rainwise IP-100,2013-03-15 03:29:00,
2013-03-14 20:34:00,54.6,45.0,29.35,WSW,247,1.6,-999.0,69,0.00,,,0.00,Rainwise IP-100,2013-03-15 03:34:00,
2013-03-14 20:39:00,54.5,45.0,29.35,WSW,247,1.4,-999.0,69,0.00,,,0.00,Rainwise IP-100,2013-03-15 03:39:00,
2013-03-14 20:44:00,54.3,45.0,29.35,WSW,247,3.5,-999.0,69,0.00,,,0.00,Rainwise IP-100,2013-03-15 03:44:00,
2013-03-14 20:49:00,54.2,44.0,29.35,SSE,157,2.8,-999.0,69,0.00,,,0.00,Rainwise IP-100,2013-03-15 03:49:00,
2013-03-14 20:54:00,54.0,44.0,29.36,ENE,67,2.3,-999.0,69,0.00,,,0.00,Rainwise IP-100,2013-03-15 03:54:00,
2013-03-14 20:59:00,53.3,44.0,29.35,NNW,337,0.0,-999.0,70,0.00,,,0.00,Rainwise IP-100,2013-03-15 03:59:00,
2013-03-14 21:00:00,53.2,43.0,29.35,NNW,337,0.0,-999.0,70,0.00,,,0.00,Rainwise IP-100,2013-03-15 04:00:00,
2013-03-14 21:01:00,53.1,43.0,29.35,NNW,337,0.0,-999.0,70,0.00,,,0.00,Rainwise IP-100,2013-03-15 04:01:00,
2013-03-14 21:06:00,52.9,43.0,29.35,NNW,337,0.0,-999.0,71,0.00,,,0.00,Rainwise IP-100,2013-03-15 04:06:00,
2013-03-14 21:11:00,52.7,43.0,29.35,WNW,292,1.2,-999.0,71,0.00,,,0.00,Rainwise IP-100,2013-03-15 04:11:00,
2013-03-14 21:16:00,52.1,43.0,29.36,WNW,292,1.4,-999.0,72,0.00,,,0.00,Rainwise IP-100,2013-03-15 04:16:00,
2013-03-14 21:21:00,51.8,43.0,29.36,WNW,292,0.0,-999.0,73,0.00,,,0.00,Rainwise IP-100,2013-03-15 04:21:00,
2013-03-14 21:26:00,51.5,43.0,29.36,WSW,247,3.0,-999.0,72,0.00,,,0.00,Rainwise IP-100,2013-03-15 04:26:00,
2013-03-14 21:31:00,51.0,43.0,29.36,WSW,247,0.0,-999.0,73,0.00,,,0.00,Rainwise IP-100,2013-03-15 04:31:00,
2013-03-14 21:36:00,50.7,42.0,29.36,WSW,247,1.6,-999.0,74,0.00,,,0.00,Rainwise IP-100,2013-03-15 04:36:00,
2013-03-14 21:41:00,50.4,42.0,29.36,WSW,247,2.1,-999.0,74,0.00,,,0.00,Rainwise IP-100,2013-03-15 04:41:00,
2013-03-14 21:46:00,49.9,42.0,29.37,WSW,247,1.6,-999.0,75,0.00,,,0.00,Rainwise IP-100,2013-03-15 04:46:00,
2013-03-14 21:51:00,49.5,42.0,29.36,WSW,247,1.2,-999.0,76,0.00,,,0.00,Rainwise IP-100,2013-03-15 04:51:00,
2013-03-14 21:56:00,49.0,42.0,29.37,WSW,247,0.0,-999.0,77,0.00,,,0.00,Rainwise IP-100,2013-03-15 04:56:00,
2013-03-14 22:01:00,48.7,42.0,29.36,WSW,247,0.0,-999.0,78,0.00,,,0.00,Rainwise IP-100,2013-03-15 05:01:00,
2013-03-14 22:06:00,48.5,43.0,29.37,SSE,157,0.0,-999.0,79,0.00,,,0.00,Rainwise IP-100,2013-03-15 05:06:00,
2013-03-14 22:11:00,48.5,43.0,29.37,NNE,22,0.0,-999.0,79,0.00,,,0.00,Rainwise IP-100,2013-03-15 05:11:00,
2013-03-14 22:16:00,48.3,42.0,29.37,NNE,22,0.0,-999.0,80,0.00,,,0.00,Rainwise IP-100,2013-03-15 05:16:00,
2013-03-14 22:21:00,48.0,42.0,29.37,NNW,337,0.0,-999.0,80,0.00,,,0.00,Rainwise IP-100,2013-03-15 05:21:00,
2013-03-14 22:26:00,47.5,41.0,29.37,WNW,292,0.0,-999.0,80,0.00,,,0.00,Rainwise IP-100,2013-03-15 05:26:00,
2013-03-14 22:31:00,47.3,41.0,29.37,WNW,292,1.6,-999.0,80,0.00,,,0.00,Rainwise IP-100,2013-03-15 05:31:00,
2013-03-14 22:36:00,47.1,41.0,29.38,WNW,292,0.0,-999.0,80,0.00,,,0.00,Rainwise IP-100,2013-03-15 05:36:00,
2013-03-14 22:41:00,47.0,41.0,29.38,WNW,292,2.8,-999.0,81,0.00,,,0.00,Rainwise IP-100,2013-03-15 05:41:00,
2013-03-14 22:46:00,46.7,41.0,29.38,WSW,247,3.0,-999.0,81,0.00,,,0.00,Rainwise IP-100,2013-03-15 05:46:00,
2013-03-14 22:51:00,46.4,40.0,29.38,WSW,247,1.6,-999.0,82,0.00,,,0.00,Rainwise IP-100,2013-03-15 05:51:00,
2013-03-14 22:56:00,46.5,41.0,29.37,WSW,247,2.6,-999.0,82,0.00,,,0.00,Rainwise IP-100,2013-03-15 05:56:00,
2013-03-14 23:02:00,46.5,41.0,29.37,WSW,247,1.4,-999.0,82,0.00,,,0.00,Rainwise IP-100,2013-03-15 06:02:00,
2013-03-14 23:07:00,46.7,41.0,29.37,WSW,247,0.0,-999.0,82,0.00,,,0.00,Rainwise IP-100,2013-03-15 06:07:00,
2013-03-14 23:12:00,46.8,41.0,29.37,WSW,247,0.0,-999.0,81,0.00,,,0.00,Rainwise IP-100,2013-03-15 06:12:00,
2013-03-14 23:17:00,46.6,41.0,29.37,WSW,247,1.4,-999.0,81,0.00,,,0.00,Rainwise IP-100,2013-03-15 06:17:00,
2013-03-14 23:22:00,46.2,40.0,29.37,WSW,247,1.9,-999.0,81,0.00,,,0.00,Rainwise IP-100,2013-03-15 06:22:00,
2013-03-14 23:27:00,46.2,40.0,29.37,WSW,247,0.0,-999.0,81,0.00,,,0.00,Rainwise IP-100,2013-03-15 06:27:00,
2013-03-14 23:32:00,46.5,41.0,29.37,SSE,157,2.6,-999.0,82,0.00,,,0.00,Rainwise IP-100,2013-03-15 06:32:00,
2013-03-14 23:37:00,46.4,40.0,29.37,SSE,157,0.0,-999.0,81,0.00,,,0.00,Rainwise IP-100,2013-03-15 06:37:00,
2013-03-14 23:42:00,46.4,40.0,29.37,SSW,202,0.0,-999.0,81,0.00,,,0.00,Rainwise IP-100,2013-03-15 06:42:00,
2013-03-14 23:47:00,46.5,41.0,29.37,SSW,202,0.0,-999.0,81,0.00,,,0.00,Rainwise IP-100,2013-03-15 06:47:00,
2013-03-14 23:52:00,46.3,40.0,29.37,SSW,202,0.0,-999.0,81,0.00,,,0.00,Rainwise IP-100,2013-03-15 06:52:00,
2013-03-14 23:57:00,46.0,40.0,29.37,SSW,202,0.0,-999.0,81,0.00,,,0.00,Rainwise IP-100,2013-03-15 06:57:00,